(25) Phocaea
ephemeris date magn radius delta ra dec elong phase
Today5 Feb 202511.91.816 AU2.751 AU21h25m-01°24'14.9°8.0°
Opposition22 Nov 202511.42.545 AU1.582 AU04h06m+04°29'163.9°6.2°
(25) Phocaea - 2025-02-05
astro.vanbuitenen.nl


 
-1 year
-1 month
-1 day
Now
+1 day
+1 month
+1 year

The interactive orbit chart above shows the body's path through the solar system and its position at the given date. Green and blue lines are shown perpendicular to the ecliptic plane: Green if the path is above the ecliptic plane, blue if it is below. (Left-click and drag to rotate the view; Right-click and drag to move the view; Use scroll wheel to zoom in our out.)

The orbital elements of Phocaea are:

            e (Eccentricity)                : 0.2542429
            a (Semimajor axis)              : 2.4004501
            i (Inclination)                 : 21.60817
            Ω (Longitude of ascending node) : 214.09236
            ω (Argument of perihelion)      : 90.20199
            M (Mean anomaly)                : 343.19156
            Epoch                           : 2024 Oct 17

            L (Longitude of perihelion)     : 124.30962
            B (Latitude of perihelion)      : 21.60803
            P (Orbital period in years)     : 3.72            
        

The light curve chart below shows the estimated development of the minor planet's magnitude.


The all-sky chart below shows the path of the minor planet over the same period as the light curve. The current position is marked yellow.





The following chart shows the path of the minor planet in the next few days. The field of view is optimized for (~10x50) binoculars and finderscopes. A more printer-friendly version of the same chart can be found below.




Ephemerides:
Date       Time       RA (2000)    DEC (2000)    delta   radius  elong  phase   PA    magn
2025-02-05 00:00 UT   21 25 35.5   -01 24 31     2.751    1.816   14.9    8.0    11   11.9 
2025-02-05 11:57 UT   21 26 51.3   -01 19 35     2.753    1.817   14.8    8.0    10   11.9 
2025-02-06 00:00 UT   21 28 07.7   -01 14 36     2.754    1.817   14.7    7.9     9   11.9 
2025-02-07 00:00 UT   21 30 39.7   -01 04 36     2.757    1.818   14.5    7.8     8   11.9 
2025-02-08 00:00 UT   21 33 11.5   +00 54 32     2.759    1.820   14.3    7.7     7   11.9 
2025-02-09 00:00 UT   21 35 43.0   +00 44 25     2.762    1.821   14.1    7.6     6   11.9 
2025-02-10 00:00 UT   21 38 14.2   +00 34 14     2.764    1.822   13.9    7.5     4   11.9 
2025-02-11 00:00 UT   21 40 45.1   +00 23 59     2.767    1.823   13.7    7.4     3   11.9 
2025-02-12 00:00 UT   21 43 15.8   +00 13 40     2.769    1.824   13.6    7.3     1   11.9 
2025-02-13 00:00 UT   21 45 46.3   +00 03 19     2.772    1.826   13.4    7.2   360   11.9 
2025-02-14 00:00 UT   21 48 16.4   +00 07 07     2.774    1.827   13.2    7.1   358   11.9 
2025-02-15 00:00 UT   21 50 46.3   +00 17 35     2.776    1.828   13.1    7.0   357   11.9 
2025-02-16 00:00 UT   21 53 16.0   +00 28 07     2.779    1.829   13.0    7.0   355   11.9 
2025-02-17 00:00 UT   21 55 45.4   +00 38 41     2.781    1.831   12.8    6.9   354   11.9 
2025-02-18 00:00 UT   21 58 14.5   +00 49 18     2.783    1.832   12.7    6.8   352   11.9 


    Terminology:
            
    delta:  distance between minor planet and earth in AU
    radius: distance between minor planet and sun in AU
    magn:   magnitude (brightness) estimate    
    ra:     right ascension in hours (24h = 360deg)
    dec:    declination in degrees
    elong:  elongation in degrees (angle sun-earth-minor planet)    
    phase:  phase angle in degrees (angle sun-minor planet-earth)        
    AU:     Astronomical Unit (mean distance between earth and sun: 149597870.7 km
    

Orbital elements provided by the MPC (Minor Planet Center).
Calculations by a modified version of AAPlus, a C# implementation of the AA+ project by PJ Naughter from the algorithms presented in the book "Astronomical Algorithms" by Jean Meeus.
NGC2000 dso catalog and star labels from VizieR as provided by the Strasbourg astronomical Data Center.
Tycho2 catalog from the ESO archive.